Location: Antichan
(42.9728°N, 0.6667°E)
Time: 11:56:48
(UTC+00:00)

Cosmos 1869 Rocket - Pass Details

Date: 15 August 2020
Orbit: 604 x 634 km, 82.5° (Epoch: 24 September)

Event Time Altitude Azimuth Distance (km) Brightness Sun altitude
Exits shadow 20:57:41 42° 104° (ESE) 905 4.0 -19.4°
Maximum altitude 20:57:59 42° 92° (E) 897 4.0 -19.5°
Drops below altitude 10° 21:02:13 10° 22° (NNE) 2,022 6.4 -20.0°
Sets 21:04:33 0° 16° (NNE) 2,937 7.4 -20.3°
